Location: Whitin Observatory
(42.2950°N, 71.3033°W)
Time: 13:43:39
(UTC-04:00)

N. Korean satellite - Visible Passes

Search period start: 20 October 2019 00:00
Search period end: 30 October 2019 00:00
Orbit: 455 x 508 km, 97.2° (Epoch: 20 October)

Date Brightness Start Highest point End Pass type
(mag) Time Alt. Az. Time Alt. Az. Time Alt. Az.
20 Oct 10.4 05:34:55 10° ENE 05:36:11 11° E 05:37:27 10° ESE visible
21 Oct 10.0 18:51:45 10° SW 18:53:46 15° W 18:55:48 10° NW visible
22 Oct 8.4 06:15:49 10° NNE 06:19:13 37° E 06:22:39 10° SSE visible
22 Oct 8.8 18:25:15 10° SSW 18:28:19 30° W 18:31:25 10° NNW visible
23 Oct 9.8 05:51:09 10° NE 05:53:48 19° E 05:56:27 10° SE visible
25 Oct 7.2 06:33:04 10° NNE 06:36:43 65° ESE 06:40:23 10° S visible
25 Oct 9.8 18:43:22 10° SW 18:45:50 18° W 18:48:20 10° NW visible
26 Oct 8.8 06:08:03 10° NNE 06:11:21 30° E 06:14:38 10° SSE visible
26 Oct 8.2 18:17:09 10° SSW 18:20:23 38° W 18:23:41 10° NNW visible
27 Oct 10.1 05:43:37 10° NE 05:45:53 15° E 05:48:10 10° SE visible
28 Oct 10.3 19:02:14 10° WSW 19:03:23 11° W 19:04:33 10° WNW visible
29 Oct 7.7 06:25:13 10° NNE 06:28:50 51° E 06:32:27 10° S visible
29 Oct 9.3 18:35:03 10° SSW 18:37:52 23° W 18:40:44 10° NW visible
